Orbital Elements
Epoch 1987 July 24.0 TT = JDT 2447000.5
T 1987 Aug. 2.22174 TT MPC
q 0.7634016 (2000.0) P Q
n 0.11139731 Peri. 338.45269 +0.96319724 -0.25064109
a 4.2777912 Node 36.50249 +0.26425101 +0.81680520
e 0.8215431 Incl. 9.39542 +0.04921876 +0.51962324
P 8.85
From 26 observations 1881 Oct. 19-2014 June 18, mean residual 1".6.
Nongravitational parameters A1 = -0.06, A2 = +0.0240.
|